Location: Boiro
(42.6475°N, 8.8834°W)
Time: 01:02:17
(UTC+01:00)

Tiros 1 despin weight - Visible Passes

Search period start: 30 November 2021 00:00
Search period end: 10 December 2021 00:00
Orbit: 593 x 641 km, 48.2° (Epoch: 29 November)

Date Brightness Start Highest point End Pass type
(mag) Time Alt. Az. Time Alt. Az. Time Alt. Az.
30 Nov ? 18:40:44 10° WNW 18:44:54 39° N 18:48:56 11° ENE visible
30 Nov ? 20:22:32 10° WNW 20:25:59 47° NNW 20:25:59 47° NNW visible
01 Dec ? 18:57:05 10° WNW 19:01:17 41° N 19:04:32 16° ENE visible
01 Dec ? 20:38:42 10° WNW 20:41:35 40° WNW 20:41:35 40° WNW visible
02 Dec ? 19:13:21 10° WNW 19:17:39 49° NNE 19:20:13 22° E visible
02 Dec ? 20:54:55 10° WNW 20:57:16 30° W 20:57:16 30° W visible
03 Dec ? 19:29:31 10° WNW 19:33:56 68° NNE 19:36:02 30° E visible
03 Dec ? 21:11:19 10° WNW 21:13:06 21° W 21:13:06 21° W visible
04 Dec ? 19:45:41 10° WNW 19:50:06 78° SSW 19:52:00 34° SE visible
04 Dec ? 21:28:12 10° W 21:29:05 13° WSW 21:29:05 13° WSW visible
05 Dec ? 20:01:57 10° WNW 20:06:10 45° SW 20:08:11 27° SSE visible
06 Dec ? 18:36:29 10° WNW 18:40:54 80° NNE 18:45:20 10° ESE visible
06 Dec ? 20:18:29 10° W 20:22:06 25° SW 20:24:40 15° S visible
07 Dec ? 18:52:40 10° WNW 18:57:03 64° SSW 19:01:25 10° SE visible
07 Dec ? 20:35:49 10° WSW 20:37:55 13° SW 20:40:01 10° SSW visible
08 Dec ? 19:09:01 10° WNW 19:13:03 36° SW 19:17:05 10° SSE visible
09 Dec ? 19:25:44 10° W 19:28:55 20° SW 19:32:07 10° S visible
